| time (UTC) | temp F | wind direction | speed knots | gust knots | rain 1hr in | rain 24hr in | rain mn in | humidity % | barometer mb |
| 20260906231604 | 94 | 177 | 1.7 | 8.7 | 0.00 | 0.00 | 0.00 | 52 | 1011.1 |
| 20260906230110 | 95 | 186 | 3.5 | 7.8 | 0.00 | 0.00 | 0.00 | 51 | 1011.2 |
| 20260906224612 | 95 | 215 | 2.6 | 7.8 | 0.00 | 0.00 | 0.00 | 50 | 1011.2 |
| 20260906223108 | 96 | 185 | 3.5 | 7.0 | 0.00 | 0.00 | 0.00 | 49 | 1011.1 |
| 20260906221612 | 96 | 147 | 2.6 | 7.0 | 0.00 | 0.00 | 0.00 | 48 | 1011.4 |
| 20260906220139 | 96 | 159 | 2.6 | 7.8 | 0.00 | 0.00 | 0.00 | 46 | 1011.5 |
| 20260906214602 | 97 | 177 | 0.9 | 8.7 | 0.00 | 0.00 | 0.00 | 46 | 1011.5 |
| 20260906213105 | 97 | 131 | 0.9 | 3.5 | 0.00 | 0.00 | 0.00 | 47 | 1011.8 |
| 20260906211613 | 95 | 0 | 0.0 | 7.0 | 0.00 | 0.00 | 0.00 | 49 | 1011.9 |
| 20260906210114 | 95 | 190 | 0.9 | 6.1 | 0.00 | 0.00 | 0.00 | 48 | 1012.2 |
| 20260906204601 | 95 | 0 | 0.0 | 4.3 | 0.00 | 0.00 | 0.00 | 49 | 1012.3 |
| 20260906203107 | 94 | 178 | 0.9 | 6.1 | 0.00 | 0.00 | 0.00 | 50 | 1012.5 |
| 20260906201608 | 94 | 195 | 1.7 | 6.1 | 0.00 | 0.00 | 0.00 | 50 | 1012.5 |
| 20260906200105 | 93 | 0 | 2.6 | 7.8 | 0.00 | 0.00 | 0.00 | 51 | 1012.8 |
| 20260906194630 | 93 | 0 | 1.7 | 6.1 | 0.00 | 0.00 | 0.00 | 52 | 1012.9 |
| 20260906193107 | 95 | 180 | 0.9 | 6.1 | 0.00 | 0.00 | 0.00 | 51 | 1013.0 |
| 20260906191609 | 95 | 250 | 2.6 | 7.0 | 0.00 | 0.00 | 0.00 | 52 | 1013.1 |
| 20260906190108 | 95 | 140 | 0.9 | 2.6 | 0.00 | 0.00 | 0.00 | 52 | 1013.4 |
| 20260906184611 | 93 | 170 | 0.9 | 6.1 | 0.00 | 0.00 | 0.00 | 53 | 1013.4 |
| 20260906183104 | 94 | 0 | 0.9 | 4.3 | 0.00 | 0.00 | 0.00 | 52 | 1013.6 |
| 20260906181603 | 92 | 181 | 1.7 | 7.0 | 0.00 | 0.00 | 0.00 | 50 | 1013.7 |
| 20260906180107 | 91 | 213 | 1.7 | 5.2 | 0.00 | 0.00 | 0.00 | 55 | 1014.1 |
| 20260906174605 | 90 | 209 | 1.7 | 4.3 | 0.00 | 0.00 | 0.00 | 61 | 1014.5 |
| 20260906173103 | 89 | 194 | 1.7 | 6.1 | 0.00 | 0.00 | 0.00 | 64 | 1014.9 |
| 20260906171609 | 88 | 173 | 1.7 | 7.8 | 0.00 | 0.00 | 0.00 | 66 | 1015.3 |
| 20260906170106 | 87 | 150 | 3.5 | 8.7 | 0.00 | 0.00 | 0.00 | 72 | 1015.4 |
| 20260906164604 | 86 | 201 | 0.9 | 5.2 | 0.00 | 0.00 | 0.00 | 71 | 1015.5 |
| 20260906163101 | 87 | 200 | 0.0 | 5.2 | 0.00 | 0.00 | 0.00 | 70 | 1015.5 |
| 20260906161606 | 87 | 202 | 1.7 | 6.1 | 0.00 | 0.00 | 0.00 | 71 | 1015.4 |
| 20260906160105 | 85 | 0 | 0.0 | 4.3 | 0.00 | 0.00 | 0.00 | 74 | 1015.4 |
| 20260906154605 | 85 | 164 | 0.0 | 3.5 | 0.00 | 0.00 | 0.00 | 74 | 1015.3 |
| 20260906153103 | 84 | 0 | 0.9 | 3.5 | 0.00 | 0.00 | 0.00 | 75 | 1015.1 |
| 20260906151606 | 84 | 164 | 0.9 | 4.3 | 0.00 | 0.00 | 0.00 | 75 | 1014.9 |
| 20260906150108 | 84 | 167 | 0.0 | 4.3 | 0.00 | 0.00 | 0.00 | 77 | 1014.7 |
| 20260906144620 | 83 | 0 | 0.0 | 2.6 | 0.00 | 0.00 | 0.00 | 77 | 1014.6 |
| 20260906143105 | 83 | 241 | 0.0 | 2.6 | 0.00 | 0.00 | 0.00 | 77 | 1014.6 |
| 20260906141635 | 82 | 0 | 0.0 | 1.7 | 0.00 | 0.00 | 0.00 | 79 | 1014.6 |
| 20260906140110 | 82 | 0 | 0.0 | 1.7 | 0.00 | 0.00 | 0.00 | 80 | 1014.4 |
| 20260906134606 | 81 | 0 | 0.0 | 1.7 | 0.00 | 0.00 | 0.00 | 81 | 1014.3 |
| 20260906133106 | 81 | 242 | 0.0 | 0.0 | 0.00 | 0.00 | 0.00 | 82 | 1014.3 |
| 20260906131607 | 81 | 0 | 0.0 | 0.9 | 0.00 | 0.00 | 0.00 | 82 | 1014.0 |
| 20260906130104 | 81 | 0 | 0.0 | 0.0 | 0.00 | 0.00 | 0.00 | 82 | 1013.8 |
| 20260906124607 | 80 | 0 | 0.0 | 0.0 | 0.00 | 0.00 | 0.00 | 83 | 1013.6 |
| 20260906123105 | 79 | 0 | 0.0 | 0.0 | 0.00 | 0.00 | 0.00 | 84 | 1013.4 |
| 20260906121604 | 79 | 0 | 0.0 | 0.0 | 0.00 | 0.00 | 0.00 | 84 | 1013.2 |
| 20260906120106 | 79 | 0 | 0.0 | 0.0 | 0.00 | 0.00 | 0.00 | 84 | 1012.9 |
| 20260906114606 | 79 | 0 | 0.0 | 0.0 | 0.00 | 0.00 | 0.00 | 83 | 1012.5 |
| 20260906113117 | 79 | 0 | 0.0 | 0.0 | 0.00 | 0.00 | 0.00 | 83 | 1012.6 |
| 20260906111619 | 80 | 0 | 0.0 | 0.0 | 0.00 | 0.00 | 0.00 | 82 | 1012.6 |
| 20260906110107 | 80 | 0 | 0.0 | 0.9 | 0.00 | 0.00 | 0.00 | 81 | 1012.3 |
| 20260906104630 | 80 | 0 | 0.0 | 0.0 | 0.00 | 0.00 | 0.00 | 80 | 1012.4 |
| 20260906103115 | 81 | 0 | 0.0 | 0.0 | 0.00 | 0.00 | 0.00 | 80 | 1012.2 |
| 20260906101610 | 81 | 0 | 0.0 | 1.7 | 0.00 | 0.00 | 0.00 | 79 | 1012.1 |
| 20260906100104 | 81 | 0 | 0.0 | 0.9 | 0.00 | 0.00 | 0.00 | 79 | 1012.0 |
| 20260906094643 | 81 | 0 | 0.0 | 1.7 | 0.00 | 0.00 | 0.00 | 78 | 1012.0 |
| 20260906093111 | 82 | 0 | 0.0 | 1.7 | 0.00 | 0.00 | 0.00 | 77 | 1011.9 |
| 20260906091617 | 82 | 242 | 0.0 | 3.5 | 0.00 | 0.00 | 0.00 | 77 | 1011.9 |
| 20260906090105 | 82 | 199 | 0.0 | 3.5 | 0.00 | 0.00 | 0.00 | 77 | 1011.9 |
| 20260906084607 | 83 | 0 | 0.0 | 6.1 | 0.00 | 0.00 | 0.00 | 76 | 1012.0 |
| 20260906083105 | 83 | 202 | 0.0 | 4.3 | 0.00 | 0.00 | 0.00 | 76 | 1012.0 |
| 20260906081603 | 83 | 0 | 0.0 | 4.3 | 0.00 | 0.00 | 0.00 | 76 | 1011.9 |
| 20260906080103 | 83 | 202 | 0.0 | 3.5 | 0.00 | 0.00 | 0.00 | 76 | 1012.1 |
| 20260906074606 | 84 | 202 | 0.9 | 4.3 | 0.00 | 0.00 | 0.00 | 76 | 1012.2 |
| 20260906073103 | 84 | 0 | 0.9 | 3.5 | 0.00 | 0.00 | 0.00 | 75 | 1012.5 |
| 20260906071606 | 84 | 0 | 0.9 | 4.3 | 0.00 | 0.00 | 0.00 | 75 | 1012.6 |
| 20260906070104 | 84 | 170 | 1.7 | 7.8 | 0.00 | 0.00 | 0.00 | 75 | 1012.8 |
| 20260906064605 | 84 | 0 | 0.0 | 5.2 | 0.00 | 0.00 | 0.00 | 75 | 1013.0 |
| 20260906063103 | 84 | 0 | 0.0 | 5.2 | 0.00 | 0.00 | 0.00 | 75 | 1013.1 |
| 20260906061606 | 84 | 164 | 1.7 | 6.1 | 0.00 | 0.00 | 0.00 | 75 | 1013.0 |
| 20260906060111 | 83 | 0 | 0.9 | 4.3 | 0.00 | 0.00 | 0.00 | 75 | 1013.1 |
| 20260906054607 | 84 | 0 | 0.0 | 3.5 | 0.00 | 0.00 | 0.00 | 75 | 1013.3 |
| 20260906053110 | 84 | 0 | 0.9 | 5.2 | 0.00 | 0.00 | 0.00 | 74 | 1013.1 |
| 20260906051605 | 84 | 161 | 0.9 | 6.1 | 0.00 | 0.00 | 0.00 | 74 | 1013.3 |
| 20260906050133 | 84 | 161 | 0.9 | 5.2 | 0.00 | 0.00 | 0.00 | 74 | 1013.3 |
| 20260906044606 | 84 | 0 | 0.9 | 7.8 | 0.00 | 0.00 | 0.00 | 73 | 1013.5 |
| 20260906043105 | 84 | 156 | 2.6 | 6.1 | 0.00 | 0.00 | 0.00 | 72 | 1013.3 |
| 20260906041605 | 84 | 155 | 2.6 | 7.8 | 0.00 | 0.00 | 0.00 | 71 | 1013.2 |
| 20260906040139 | 85 | 0 | 2.6 | 8.7 | 0.00 | 0.00 | 0.00 | 70 | 1013.1 |
| 20260906034609 | 85 | 136 | 2.6 | 7.0 | 0.00 | 0.00 | 0.00 | 69 | 1013.2 |
| 20260906033109 | 86 | 138 | 1.7 | 9.6 | 0.00 | 0.00 | 0.00 | 67 | 1013.1 |
| 20260906031605 | 86 | 131 | 2.6 | 9.6 | 0.00 | 0.00 | 0.00 | 66 | 1013.1 |
| 20260906030111 | 87 | 144 | 4.3 | 10.4 | 0.00 | 0.00 | 0.00 | 64 | 1012.9 |
| 20260906024608 | 88 | 149 | 3.5 | 10.4 | 0.00 | 0.00 | 0.00 | 62 | 1012.6 |
| 20260906023104 | 88 | 117 | 5.2 | 13.0 | 0.00 | 0.00 | 0.00 | 60 | 1012.1 |
| 20260906021609 | 89 | 126 | 2.6 | 10.4 | 0.00 | 0.00 | 0.00 | 58 | 1011.8 |
| 20260906020107 | 89 | 155 | 3.5 | 12.2 | 0.00 | 0.00 | 0.00 | 57 | 1011.6 |
| 20260906014603 | 90 | 136 | 3.5 | 8.7 | 0.00 | 0.00 | 0.00 | 57 | 1011.4 |
| 20260906013101 | 91 | 115 | 2.6 | 10.4 | 0.00 | 0.00 | 0.00 | 55 | 1011.4 |
| 20260906011607 | 91 | 0 | 3.5 | 9.6 | 0.00 | 0.00 | 0.00 | 55 | 1011.0 |
| 20260906010110 | 92 | 103 | 2.6 | 9.6 | 0.00 | 0.00 | 0.00 | 55 | 1011.0 |
| 20260906004606 | 93 | 126 | 3.5 | 11.3 | 0.00 | 0.00 | 0.00 | 54 | 1011.0 |
| 20260906003107 | 93 | 112 | 5.2 | 13.0 | 0.00 | 0.00 | 0.00 | 53 | 1010.9 |
| 20260906001621 | 94 | 110 | 4.3 | 10.4 | 0.00 | 0.00 | 0.00 | 51 | 1010.8 |
| 20260906000108 | 95 | 125 | 4.3 | 13.0 | 0.00 | 0.00 | 0.00 | 49 | 1010.7 |
| 20260905234602 | 97 | 0 | 1.7 | 5.2 | 0.00 | 0.00 | 0.00 | 44 | 1010.6 |
| 20260905233112 | 97 | 136 | 0.9 | 7.8 | 0.00 | 0.00 | 0.00 | 43 | 1010.4 |